QPF
0.00 0.00 0.00 0.00 0.00 0.00 0.00 0.00 0.00 0.00 0.00 0.00 0.00 0.00 0.00 0.00 0.00 0.00 0.00 0.00 0.00 0.00 0.00 0.00 0.00 0.00 0.00 0.00 0.00 0.00 0.00 0.00 0.00 0.00 0.00 0.00 0.00 0.00 0.00 0.00 0.00 0.00 0.00
0.00 0.00 0.00 0.00 0.00 0.00 0.00 0.00 0.00 0.00 0.00 0.00 0.00 0.00 0.00 0.00 0.00 0.00 0.00 0.00 0.00 0.00 0.00 0.00 0.00 0.00 0.00 0.00 0.00 0.00 0.00 0.00 0.00 0.00 0.00 0.00 0.00 0.00 0.00 0.00 0.00 0.00 0.00
0.00 0.00 0.00 0.00 0.00 0.00 0.00 0.00 0.00 0.00 0.00 0.00 0.00 0.00 0.00 0.00 0.00 0.00 0.00 0.00 0.00 0.00 0.00 0.00 0.00 0.00 0.00 0.00 0.00 0.00 0.00 0.00 0.00 0.00 0.00 0.00 0.00 0.00 0.00 0.00 0.00 0.00 0.00
0.00 0.00 0.00 0.00 0.00 0.00 0.00 0.00 0.00 0.00 0.00 0.00 0.00 0.00 0.00 0.00 0.00 0.00 0.00 0.00 0.00 0.00 0.00 0.00 0.00 0.00 0.00 0.00 0.00 0.00 0.00 0.00 0.00 0.00 0.00 0.00 0.00 0.00 0.00 0.00 0.00 0.00 0.00
0.00 0.00 0.00 0.00 0.00 0.00 0.00 0.00 0.00 0.00 0.00 0.00 0.00 0.00 0.00 0.00 0.00 0.00 0.00 0.00 0.00 0.00 0.00 0.00 0.00 0.00 0.00 0.00 0.00 0.00 0.00 0.00 0.00 0.00 0.00 0.00 0.00 0.00 0.00 0.00 0.00 0.00 0.00
0.00 0.00 0.00 0.00 0.00 0.00 0.00 0.00 0.00 0.00 0.00 0.00 0.00 0.00 0.00 0.00 0.00 0.00 0.00 0.00 0.00 0.00 0.00 0.00 0.00 0.00 0.00 0.00 0.00 0.00 0.00 0.00 0.00 0.00 0.00 0.00 0.00 0.00 0.00 0.00 0.00 0.00 0.00
0.00 0.00 0.00 0.00 0.00 0.00 0.00 0.00 0.00 0.00 0.00 0.00 0.00 0.00 0.00 0.00 0.00 0.00 0.00 0.00 0.00 0.00 0.00 0.00 0.00 0.00 0.00 0.00 0.00 0.00 0.00 0.00 0.00 0.00 0.00 0.00 0.00 0.00 0.00 0.00 0.00 0.00 0.00
0.00 0.00 0.00 0.00 0.00 0.00 0.00 0.00 0.00 0.00 0.00 0.00 0.00 0.00 0.00 0.00 0.00 0.00 0.00 0.00 0.00 0.00 0.00 0.00 0.00 0.00 0.00 0.00 0.00 0.00 0.00 0.00 0.00 0.00 0.00 0.00 0.00 0.00 0.00 0.00 0.00 0.00 0.00
0.00 0.00 0.00 0.00 0.00 0.00 0.00 0.00 0.00 0.00 0.00 0.00 0.00 0.00 0.00 0.00 0.00 0.00 0.00 0.00 0.00 0.00 0.00 0.00 0.00 0.00 0.00 0.00 0.00 0.00 0.00 0.00 0.00 0.00 0.00 0.00 0.00 0.00 0.00 0.00 0.00 0.00 0.00
0.00 0.00 0.00 0.00 0.00 0.00 0.00 0.00 0.00 0.00 0.00 0.00 0.00 0.00 0.00 0.00 0.00 0.00 0.00 0.00 0.00 0.00 0.00 0.00 0.00 0.00 0.00 0.00 0.00 0.00 0.00 0.00 0.00 0.00 0.00 0.00 0.00 0.00 0.00 0.00 0.00 0.00 0.00
0.00 0.00 0.00 0.00 0.00 0.00 0.00 0.00 0.00 0.00 0.00 0.00 0.00 0.00 0.00 0.00 0.00 0.00 0.00 0.00 0.00 0.00 0.00 0.00 0.00 0.00 0.00 0.00 0.00 0.00 0.00 0.00 0.00 0.00 0.00 0.00 0.00 0.00 0.00 0.00 0.00 0.00 0.00
0.00 0.00 0.00 0.00 0.00 0.00 0.00 0.00 0.00 0.00 0.00 0.00 0.00 0.00 0.00 0.00 0.00 0.00 0.00 0.00 0.00 0.00 0.00 0.00 0.00 0.00 0.00 0.00 0.00 0.00 0.00 0.00 0.00 0.00 0.00 0.00 0.00 0.00 0.00 0.00 0.00 0.00 0.00
0.00 0.00 0.00 0.00 0.00 0.00 0.00 0.00 0.00 0.00 0.00 0.00 0.00 0.00 0.00 0.00 0.00 0.00 0.00 0.00 0.00 0.00 0.00 0.00 0.00 0.00 0.00 0.00 0.00 0.00 0.00 0.00 0.00 0.00 0.00 0.00 0.00 0.00 0.00 0.00 0.00 0.00 0.00
0.00 0.00 0.00 0.00 0.00 0.00 0.00 0.00 0.00 0.00 0.00 0.00 0.00 0.00 0.00 0.00 0.00 0.00 0.00 0.00 0.00 0.00 0.00 0.00 0.00 0.00 0.00 0.00 0.00 0.00 0.00 0.00 0.00 0.00 0.00 0.00 0.00 0.00 0.00 0.00 0.00 0.00 0.00
0.00 0.00 0.00 0.00 0.00 0.00 0.00 0.00 0.00 0.00 0.00 0.00 0.00 0.00 0.00 0.00 0.00 0.00 0.00 0.00 0.00 0.00 0.00 0.00 0.00 0.00 0.00 0.00 0.00 0.00 0.00 0.00 0.00 0.00 0.00 0.00 0.00 0.00 0.00 0.00 0.00 0.00 0.00
0.00 0.00 0.00 0.00 0.00 0.00 0.00 0.00 0.00 0.00 0.00 0.00 0.00 0.00 0.00 0.00 0.00 0.00 0.00 0.00 0.00 0.00 0.00 0.00 0.00 0.00 0.00 0.00 0.00 0.00 0.00 0.00 0.00 0.00 0.00 0.00 0.00 0.00 0.00 0.00 0.00 0.00 0.00
0.00 0.00 0.00 0.00 0.00 0.00 0.00 0.00 0.00 0.00 0.00 0.00 0.00 0.00 0.00 0.00 0.00 0.00 0.00 0.00 0.00 0.00 0.00 0.00 0.00 0.00 0.00 0.00 0.00 0.00 0.00 0.00 0.00 0.00 0.00 0.00 0.00 0.00 0.00 0.00 0.00 0.00 0.00
0.00 0.00 0.00 0.00 0.00 0.00 0.00 0.00 0.00 0.00 0.00 0.00 0.00 0.00 0.00 0.00 0.00 0.00 0.00 0.00 0.00 0.00 0.00 0.00 0.00 0.00 0.00 0.00 0.00 0.00 0.00 0.00 0.00 0.00 0.00 0.00 0.00 0.00 0.00 0.00 0.00 0.00 0.00
0.00 0.00 0.00 0.00 0.00 0.00 0.00 0.00 0.00 0.00 0.00 0.00 0.00 0.00 0.00 0.00 0.00 0.00 0.00 0.00 0.00 0.00 0.00 0.00 0.00 0.00 0.00 0.00 0.00 0.00 0.00 0.00 0.00 0.00 0.00 0.00 0.00 0.00 0.00 0.00 0.00 0.00 0.00
0.00 0.00 0.00 0.00 0.00 0.00 0.00 0.00 0.00 0.00 0.00 0.00 0.00 0.00 0.00 0.00 0.00 0.00 0.00 0.00 0.00 0.00 0.00 0.00 0.00 0.00 0.00 0.00 0.00 0.00 0.00 0.00 0.00 0.00 0.00 0.00 0.00 0.00 0.00 0.00 0.00 0.00 0.00
0.00 0.00 0.00 0.00 0.00 0.00 0.00 0.00 0.00 0.00 0.00 0.00 0.00 0.00 0.00 0.00 0.00 0.00 0.00 0.00 0.00 0.00 0.00 0.00 0.00 0.00 0.00 0.00 0.00 0.00 0.00 0.00 0.00 0.00 0.00 0.00 0.00 0.00 0.00 0.00 0.00 0.00 0.00
0.00 0.00 0.00 0.00 0.00 0.00 0.00 0.00 0.00 0.00 0.00 0.00 0.00 0.00 0.00 0.00 0.00 0.00 0.00 0.00 0.00 0.00 0.00 0.00 0.00 0.00 0.00 0.00 0.00 0.00 0.00 0.00 0.00 0.00 0.00 0.00 0.00 0.00 0.00 0.00 0.00 0.00 0.00
0.00 0.00 0.00 0.00 0.00 0.00 0.00 0.00 0.00 0.00 0.00 0.00 0.00 0.00 0.00 0.00 0.00 0.00 0.00 0.00 0.00 0.00 0.00 0.00 0.00 0.00 0.00 0.00 0.00 0.00 0.00 0.00 0.00 0.00 0.00 0.00 0.00 0.00 0.00 0.00 0.00 0.00 0.00
0.00 0.00 0.00 0.00 0.00 0.00 0.00 0.00 0.00 0.00 0.00 0.00 0.00 0.00 0.00 0.00 0.00 0.00 0.00 0.00 0.00 0.00 0.00 0.00 0.00 0.00 0.00 0.00 0.00 0.00 0.00 0.00 0.00 0.00 0.00 0.00 0.00 0.00 0.00 0.00 0.00 0.00 0.00
0.00 0.00 0.00 0.00 0.00 0.00 0.00 0.00 0.00 0.00 0.00 0.00 0.00 0.00 0.00 0.00 0.00 0.00 0.00 0.00 0.00 0.00 0.00 0.00 0.00 0.00 0.00 0.00 0.00 0.00 0.00 0.00 0.00 0.00 0.00 0.00 0.00 0.00 0.00 0.00 0.00 0.00 0.00
0.00 0.00 0.00 0.00 0.00 0.00 0.00 0.00 0.00 0.00 0.00 0.00 0.00 0.00 0.00 0.00 0.00 0.00 0.00 0.00 0.00 0.00 0.00 0.00 0.00 0.00 0.00 0.00 0.00 0.00 0.00 0.00 0.00 0.00 0.00 0.00 0.00 0.00 0.00 0.00 0.00 0.00 0.00
MSLP
1011.88 1013.75 1015.15 1016.58 1017.88 1018.90 1020.78 1021.61 1022.88 1023.66 1024.35 1025.05 1025.26 1026.10 1026.62 1027.40 1027.51 1027.62 1028.28 1028.83 1028.88 1029.08 1029.70 1030.31 1030.66 1030.81 1031.06 1031.20 1031.13 1031.22 1031.52 1031.52 1031.66 1031.26 1030.92 1030.58 1030.39 1030.34 1030.15 1030.04 1029.85 1029.92 1030.05
1012.53 1014.34 1015.63 1017.16 1018.22 1019.17 1021.02 1022.62 1023.31 1024.33 1024.21 1025.38 1026.03 1026.53 1026.77 1027.17 1027.62 1028.16 1028.62 1029.17 1029.46 1029.62 1030.10 1030.53 1030.85 1031.04 1031.30 1031.45 1031.42 1031.61 1031.68 1031.69 1031.63 1031.24 1030.79 1030.46 1030.44 1030.46 1030.31 1030.12 1030.15 1030.17 1030.19
1013.29 1014.52 1016.23 1017.28 1018.70 1020.69 1021.47 1022.15 1023.68 1024.30 1025.55 1025.82 1026.43 1027.05 1027.21 1027.82 1028.33 1028.82 1028.94 1029.41 1029.78 1030.18 1030.45 1030.82 1031.32 1031.46 1031.55 1031.81 1031.86 1032.02 1031.95 1031.90 1031.63 1031.49 1031.02 1030.93 1030.94 1030.91 1030.44 1030.46 1030.67 1030.19 1029.90
1013.89 1015.89 1016.75 1018.09 1019.41 1021.17 1021.75 1022.81 1023.92 1025.46 1025.75 1025.99 1026.97 1027.49 1027.95 1028.34 1028.65 1029.02 1029.42 1029.89 1030.25 1030.77 1030.83 1031.17 1031.42 1031.81 1031.90 1031.90 1031.90 1032.13 1031.87 1031.74 1031.60 1031.50 1031.54 1031.42 1031.43 1031.09 1031.07 1030.84 1030.32 1030.45 1029.57
1014.87 1016.37 1017.75 1019.63 1020.53 1021.64 1022.85 1023.86 1024.64 1025.52 1026.36 1026.86 1027.22 1028.13 1028.35 1028.72 1029.08 1029.60 1029.82 1030.22 1030.71 1030.99 1031.16 1031.31 1031.55 1031.64 1031.74 1031.91 1031.80 1031.79 1031.62 1031.68 1031.62 1031.79 1031.80 1031.80 1031.54 1031.20 1031.50 1031.16 1030.77 1030.07 1030.05
1016.83 1017.61 1018.76 1020.36 1021.30 1022.82 1023.91 1024.49 1025.16 1025.99 1026.83 1027.35 1027.85 1028.51 1028.71 1029.20 1029.47 1029.65 1030.10 1030.64 1030.92 1031.15 1031.23 1031.17 1031.34 1031.52 1031.74 1031.88 1031.70 1031.44 1031.05 1031.59 1031.87 1032.05 1032.13 1031.82 1031.74 1031.94 1031.69 1031.47 1030.81 1030.70 1030.24
1017.94 1018.44 1019.92 1021.06 1022.83 1023.84 1024.35 1024.58 1025.49 1026.60 1027.49 1027.82 1028.20 1028.78 1029.44 1029.60 1029.62 1030.05 1030.36 1030.91 1030.97 1031.03 1031.03 1031.27 1031.31 1031.65 1031.94 1031.88 1031.68 1031.39 1031.50 1031.71 1031.72 1032.10 1031.93 1032.11 1032.13 1032.03 1031.66 1031.14 1031.21 1031.23 1030.97
1019.42 1019.93 1021.30 1022.65 1023.78 1024.21 1025.18 1025.72 1026.68 1027.18 1027.73 1028.24 1028.92 1029.25 1029.42 1029.68 1029.82 1030.21 1030.76 1030.73 1030.85 1030.99 1031.27 1031.37 1031.65 1031.90 1031.78 1031.45 1031.51 1031.59 1032.05 1031.97 1031.99 1031.96 1032.11 1032.25 1032.03 1031.50 1031.43 1031.30 1031.12 1031.14 1030.95
1020.98 1021.95 1022.73 1023.40 1024.04 1025.24 1026.06 1026.58 1027.06 1027.40 1028.02 1028.66 1029.19 1029.54 1029.92 1030.33 1030.44 1030.65 1030.59 1030.60 1030.89 1031.28 1031.43 1031.52 1031.41 1031.81 1031.66 1031.78 1032.01 1032.07 1032.11 1032.08 1032.06 1031.91 1031.77 1031.84 1031.71 1031.40 1031.24 1030.98 1031.47 1031.49 1030.80
1021.93 1022.60 1023.50 1024.35 1025.34 1026.05 1026.44 1027.00 1027.63 1028.01 1028.53 1029.34 1029.89 1030.18 1030.47 1030.90 1030.52 1030.56 1030.65 1030.94 1031.32 1031.49 1031.10 1031.09 1031.44 1031.79 1031.72 1031.73 1032.10 1032.27 1032.16 1032.16 1032.24 1032.26 1032.39 1032.36 1032.06 1031.71 1031.19 1031.35 1031.31 1031.36 1031.12
1022.70 1023.60 1024.26 1025.09 1025.80 1026.40 1026.92 1027.41 1028.09 1028.59 1029.70 1030.17 1030.33 1030.55 1030.74 1030.95 1031.09 1030.97 1031.16 1031.55 1031.34 1031.51 1031.76 1031.60 1031.78 1031.82 1031.97 1032.03 1031.90 1032.56 1032.16 1031.65 1032.56 1032.86 1032.71 1032.32 1031.81 1031.48 1031.41 1031.34 1031.21 1031.14 1030.82
1023.92 1024.58 1025.49 1026.04 1026.52 1027.22 1027.60 1028.18 1029.03 1029.40 1030.15 1030.48 1030.62 1031.09 1031.47 1031.68 1031.46 1031.53 1031.56 1031.28 1031.70 1032.16 1032.20 1032.44 1032.47 1032.10 1032.23 1032.16 1032.12 1032.12 1031.90 1032.68 1033.36 1033.19 1032.87 1032.36 1031.82 1031.50 1031.29 1031.13 1030.84 1030.56 1030.17
1024.53 1025.43 1025.90 1026.59 1027.23 1027.88 1028.36 1028.96 1029.57 1029.89 1030.30 1030.84 1031.07 1031.43 1031.83 1032.11 1032.17 1031.99 1032.06 1032.10 1032.04 1032.05 1032.54 1032.60 1032.84 1032.58 1032.50 1032.91 1032.72 1032.35 1032.98 1033.61 1033.48 1033.58 1033.10 1032.39 1031.85 1031.34 1030.98 1030.67 1030.23 1029.63 1028.99
1025.09 1025.96 1026.59 1027.23 1028.13 1028.85 1029.13 1029.64 1030.00 1030.53 1030.74 1031.03 1031.27 1031.96 1032.62 1032.63 1032.88 1033.11 1032.67 1032.69 1032.75 1032.88 1033.31 1033.76 1033.12 1032.59 1032.68 1032.70 1033.10 1032.97 1033.13 1033.37 1033.27 1033.22 1032.83 1032.16 1031.60 1031.40 1030.81 1030.21 1029.65 1028.99 1028.19
1026.07 1026.96 1027.70 1028.22 1028.99 1029.65 1029.88 1030.16 1030.20 1030.47 1030.57 1031.09 1032.09 1032.43 1032.77 1033.11 1032.96 1032.72 1032.88 1033.31 1033.79 1033.77 1034.02 1034.26 1033.84 1033.67 1033.60 1033.61 1033.69 1033.75 1033.67 1033.49 1033.29 1033.09 1032.71 1032.29 1031.71 1031.10 1030.45 1029.89 1029.44 1028.78 1028.34
1027.12 1027.85 1028.32 1028.91 1029.42 1029.67 1030.02 1030.48 1030.63 1030.72 1031.21 1031.61 1032.03 1032.71 1032.97 1032.83 1033.01 1033.04 1033.26 1033.23 1033.11 1033.03 1034.37 1034.84 1034.75 1034.50 1034.46 1034.24 1034.16 1033.96 1033.71 1033.53 1033.36 1033.06 1032.68 1032.27 1031.63 1030.97 1030.33 1029.68 1029.23 1028.71 1027.78
1027.43 1028.38 1029.15 1029.29 1029.76 1030.15 1030.76 1031.11 1031.37 1031.46 1032.09 1032.55 1032.64 1032.65 1033.02 1033.48 1033.59 1033.66 1033.64 1033.40 1033.32 1033.78 1034.69 1035.33 1035.41 1035.23 1034.74 1034.39 1034.23 1034.06 1033.82 1033.58 1033.46 1032.93 1032.53 1032.04 1031.50 1030.92 1030.29 1029.48 1028.91 1028.27 1027.30
1028.42 1028.75 1029.44 1029.61 1029.85 1030.49 1031.05 1031.64 1032.14 1032.64 1033.10 1033.54 1033.54 1034.01 1034.18 1034.12 1033.93 1033.88 1033.74 1034.16 1034.45 1034.34 1034.89 1035.43 1035.60 1035.01 1034.70 1034.47 1034.14 1033.85 1033.42 1033.20 1032.97 1032.53 1032.07 1031.62 1031.24 1030.89 1030.10 1029.33 1028.71 1027.94 1027.04
1028.90 1029.34 1029.69 1030.20 1030.85 1031.20 1031.60 1032.15 1032.70 1033.40 1034.12 1034.81 1034.90 1034.88 1035.39 1034.45 1034.04 1033.91 1033.94 1035.09 1035.52 1035.62 1035.25 1035.15 1034.95 1034.76 1034.51 1034.18 1033.76 1033.35 1032.94 1032.58 1032.24 1031.85 1031.45 1030.99 1030.55 1030.33 1029.64 1028.91 1028.15 1027.47 1026.78
1029.43 1029.95 1030.52 1031.16 1031.44 1031.83 1032.37 1033.07 1033.86 1034.67 1035.38 1035.98 1036.21 1035.77 1035.93 1035.42 1035.33 1035.58 1035.39 1035.45 1035.49 1035.34 1035.09 1034.86 1034.63 1034.50 1034.16 1033.74 1033.24 1032.76 1032.34 1031.89 1031.47 1031.00 1030.48 1030.04 1029.63 1029.36 1028.85 1028.28 1027.63 1026.90 1026.14
1030.44 1030.92 1031.36 1031.68 1032.04 1032.48 1033.25 1034.15 1034.73 1035.53 1036.29 1036.41 1035.90 1035.32 1034.66 1035.35 1035.90 1035.97 1035.82 1035.67 1035.54 1035.15 1034.74 1034.50 1034.21 1033.90 1033.38 1032.92 1032.59 1032.01 1031.49 1030.84 1030.32 1029.85 1029.48 1029.00 1028.69 1028.49 1027.94 1027.36 1026.78 1026.22 1025.39
1031.02 1031.51 1031.95 1032.48 1032.87 1033.45 1034.10 1034.51 1035.20 1035.83 1036.29 1036.74 1036.12 1035.53 1034.52 1035.60 1035.83 1035.73 1035.48 1035.24 1034.95 1034.59 1034.02 1033.78 1033.20 1032.64 1032.28 1031.92 1031.41 1030.93 1030.40 1029.67 1029.05 1028.73 1028.45 1028.14 1027.84 1027.40 1026.91 1026.45 1025.90 1025.30 1024.59
1031.71 1032.21 1032.58 1033.22 1033.71 1034.26 1034.85 1035.29 1035.76 1036.24 1036.47 1036.44 1036.31 1036.08 1035.95 1035.74 1035.68 1035.45 1034.95 1034.34 1034.02 1033.40 1032.89 1032.91 1032.39 1031.72 1031.16 1030.67 1030.19 1029.82 1029.37 1028.47 1027.85 1027.72 1027.54 1027.27 1026.80 1026.18 1025.93 1025.52 1025.12 1024.59 1023.82
1032.21 1032.70 1033.27 1034.05 1034.62 1035.13 1035.65 1036.00 1036.17 1036.34 1036.55 1036.59 1036.45 1036.23 1035.95 1035.68 1035.39 1035.02 1034.47 1033.73 1033.21 1032.64 1032.08 1031.76 1031.35 1030.77 1030.11 1029.53 1028.99 1028.56 1028.06 1027.40 1027.01 1026.68 1026.66 1026.33 1025.68 1025.18 1024.94 1024.69 1024.34 1023.76 1022.92
1032.78 1033.38 1034.10 1034.66 1035.17 1035.62 1035.88 1036.04 1036.29 1036.47 1036.55 1036.46 1036.20 1035.94 1035.53 1035.23 1034.85 1034.33 1033.55 1032.92 1032.38 1031.88 1031.27 1030.84 1030.31 1029.65 1029.14 1028.53 1027.94 1027.29 1026.69 1026.35 1026.13 1025.74 1025.49 1025.41 1024.76 1024.29 1024.02 1023.72 1023.23 1022.69 1022.02
1033.00 1033.66 1034.34 1034.80 1035.21 1035.60 1036.00 1036.33 1036.60 1036.62 1036.52 1036.22 1035.93 1035.61 1035.24 1034.70 1034.02 1033.37 1032.72 1032.21 1031.69 1031.06 1030.48 1029.80 1029.07 1028.54 1027.97 1027.30 1026.62 1026.03 1025.45 1024.89 1024.27 1023.65 1023.47 1023.39 1023.22 1022.82 1022.66 1022.45 1021.96 1021.47 1020.68
Thickness
5578 5571 5565 5556 5547 5540 5526 5521 5513 5505 5497 5490 5487 5478 5471 5462 5458 5455 5447 5440 5436 5431 5422 5412 5404 5397 5388 5382 5376 5369 5359 5352 5343 5338 5330 5323 5315 5306 5296 5287 5279 5269 5259
5565 5559 5553 5543 5536 5530 5517 5506 5500 5491 5489 5478 5470 5464 5459 5454 5448 5441 5436 5429 5422 5416 5407 5398 5390 5383 5375 5368 5362 5352 5343 5334 5327 5323 5315 5307 5296 5286 5278 5271 5259 5248 5239
5554 5548 5539 5533 5524 5510 5506 5499 5486 5479 5467 5464 5457 5450 5447 5441 5435 5428 5424 5416 5409 5400 5393 5384 5374 5368 5361 5352 5343 5332 5323 5315 5308 5301 5295 5284 5274 5264 5259 5248 5235 5228 5218
5540 5529 5529 5521 5511 5497 5493 5482 5473 5460 5456 5453 5443 5438 5433 5428 5423 5417 5410 5402 5394 5384 5378 5369 5362 5353 5345 5337 5327 5315 5308 5299 5290 5282 5271 5262 5250 5243 5234 5223 5218 5200 5196
5528 5521 5513 5499 5493 5482 5471 5463 5458 5451 5444 5438 5434 5426 5421 5415 5409 5402 5396 5388 5378 5370 5363 5357 5349 5340 5331 5321 5311 5301 5291 5282 5273 5260 5249 5238 5231 5222 5206 5197 5185 5177 5160
5506 5503 5496 5484 5475 5462 5453 5451 5447 5441 5434 5428 5422 5414 5410 5402 5396 5390 5383 5374 5366 5359 5352 5345 5336 5326 5315 5304 5295 5286 5280 5265 5251 5240 5227 5217 5205 5189 5178 5164 5153 5135 5127
5491 5486 5475 5468 5455 5447 5445 5446 5440 5429 5420 5416 5412 5406 5396 5392 5386 5379 5372 5362 5355 5348 5341 5330 5321 5310 5299 5291 5281 5272 5261 5246 5233 5218 5208 5191 5177 5161 5152 5138 5117 5100 5085
5463 5464 5456 5447 5442 5441 5434 5430 5422 5418 5412 5407 5399 5393 5388 5382 5376 5368 5357 5352 5345 5336 5326 5315 5303 5293 5285 5279 5269 5258 5242 5229 5215 5201 5184 5165 5150 5137 5121 5105 5094 5082 5066
5446 5444 5443 5441 5439 5429 5422 5417 5414 5411 5405 5397 5391 5384 5376 5368 5359 5352 5348 5341 5331 5319 5308 5298 5290 5279 5271 5263 5251 5237 5225 5212 5195 5177 5161 5144 5127 5110 5096 5086 5067 5055 5051
5443 5441 5436 5429 5421 5417 5415 5412 5405 5401 5394 5385 5376 5369 5363 5353 5351 5344 5336 5324 5313 5304 5299 5290 5279 5269 5257 5244 5232 5218 5206 5192 5176 5163 5143 5123 5106 5092 5079 5065 5053 5036 5028
5434 5429 5427 5421 5416 5413 5409 5404 5396 5389 5376 5368 5364 5359 5354 5346 5336 5327 5318 5306 5301 5293 5281 5275 5263 5251 5239 5225 5214 5198 5185 5174 5155 5137 5122 5108 5095 5080 5066 5052 5038 5028 5017
5423 5419 5413 5411 5409 5402 5397 5390 5379 5373 5363 5358 5354 5345 5335 5327 5322 5312 5304 5299 5287 5276 5268 5256 5244 5233 5219 5208 5195 5181 5167 5150 5133 5117 5102 5090 5079 5067 5055 5044 5033 5023 5009
5418 5412 5409 5402 5395 5389 5384 5376 5368 5362 5357 5348 5341 5331 5323 5315 5307 5298 5290 5281 5275 5265 5252 5240 5224 5213 5202 5188 5173 5162 5147 5129 5112 5096 5083 5073 5064 5054 5044 5038 5030 5022 5013
5411 5404 5399 5394 5385 5376 5371 5363 5356 5347 5342 5337 5331 5318 5306 5299 5291 5283 5278 5269 5257 5247 5232 5217 5209 5199 5187 5175 5161 5145 5128 5113 5097 5080 5068 5061 5051 5043 5035 5029 5025 5019 5014
5400 5394 5386 5381 5371 5362 5358 5353 5349 5344 5336 5325 5313 5305 5295 5284 5280 5275 5264 5251 5239 5224 5214 5206 5195 5185 5172 5157 5142 5127 5111 5094 5078 5064 5054 5046 5038 5032 5027 5021 5014 5010 5000
5390 5383 5378 5371 5365 5360 5352 5342 5334 5329 5321 5314 5305 5295 5289 5280 5268 5258 5247 5235 5227 5219 5204 5190 5180 5170 5156 5141 5125 5109 5091 5077 5062 5049 5037 5030 5026 5022 5019 5013 5007 5001 4996
5385 5376 5366 5362 5355 5350 5340 5332 5324 5319 5307 5300 5294 5288 5276 5264 5253 5242 5233 5225 5217 5206 5187 5175 5163 5151 5138 5123 5107 5091 5077 5061 5048 5035 5024 5018 5014 5012 5009 5006 5002 4996 4992
5370 5365 5356 5353 5349 5340 5332 5324 5316 5306 5294 5287 5282 5271 5260 5251 5243 5234 5226 5215 5198 5189 5175 5162 5147 5135 5122 5107 5091 5076 5063 5049 5035 5024 5014 5008 5003 5002 5002 4999 4994 4989 4984
5363 5356 5351 5344 5335 5332 5327 5319 5310 5300 5289 5275 5265 5257 5248 5241 5234 5226 5216 5199 5184 5171 5160 5147 5136 5122 5108 5093 5079 5065 5050 5038 5024 5014 5007 5002 4999 4996 4995 4993 4990 4984 4977
5353 5346 5340 5333 5330 5326 5318 5309 5298 5287 5274 5261 5250 5243 5239 5231 5218 5208 5199 5187 5173 5162 5151 5138 5126 5111 5097 5083 5070 5054 5041 5027 5015 5007 5002 4999 4998 4994 4993 4990 4984 4980 4974
5342 5336 5331 5328 5323 5316 5306 5295 5284 5272 5260 5251 5243 5238 5233 5217 5204 5193 5183 5173 5162 5152 5141 5129 5116 5102 5089 5075 5060 5045 5033 5022 5014 5006 5000 4999 4998 4994 4992 4987 4982 4975 4971
5337 5330 5324 5317 5311 5303 5293 5283 5271 5261 5251 5242 5234 5227 5221 5207 5195 5185 5174 5164 5153 5142 5132 5121 5109 5095 5080 5065 5052 5039 5028 5021 5015 5008 5004 5002 4999 4996 4993 4987 4981 4975 4970
5327 5320 5313 5305 5297 5290 5280 5269 5259 5249 5241 5233 5224 5215 5205 5195 5186 5176 5167 5158 5147 5137 5125 5112 5100 5088 5074 5060 5046 5035 5027 5022 5018 5012 5009 5006 5003 5000 4994 4988 4980 4974 4968
5317 5311 5303 5292 5283 5275 5265 5257 5249 5242 5232 5223 5214 5205 5195 5186 5176 5166 5157 5149 5140 5130 5118 5106 5093 5081 5070 5056 5045 5034 5028 5025 5020 5017 5013 5008 5006 5001 4994 4986 4978 4972 4967
5308 5299 5289 5279 5271 5263 5255 5248 5240 5232 5223 5215 5206 5196 5188 5178 5167 5159 5152 5144 5135 5124 5113 5100 5089 5078 5067 5055 5043 5035 5032 5027 5023 5020 5016 5012 5007 5000 4992 4985 4979 4972 4965
5298 5288 5278 5270 5262 5254 5246 5238 5229 5221 5213 5205 5197 5188 5178 5169 5160 5151 5144 5136 5127 5117 5107 5095 5085 5074 5062 5052 5043 5037 5034 5030 5028 5027 5023 5017 5009 5002 4994 4986 4979 4972 4968